This is the latest recevied weather packets stored in our database for station/object WA0GMH-1. If no packets are shown the sender has not sent any weather packets the latest 10 day(s).
| Time | Temp. | Humidity | Pressure | Rain* | Wind** | Luminosity | Snow |
|---|---|---|---|---|---|---|---|
| 1778096504 | 15.56° C | 62% | 1016.9 hPa | 0 mm | - | - | - |
| 1778096101 | 15.56° C | 62% | 1017 hPa | 0 mm | - | - | - |
| 1778095699 | 15.56° C | 61% | 1017.1 hPa | 0 mm | - | - | - |
| 1778095296 | 15.56° C | 61% | 1016.9 hPa | 0 mm | - | - | - |
| 1778094895 | 15.56° C | 65% | 1017 hPa | 0 mm | - | - | - |
| 1778094492 | 14.44° C | 65% | 1017.2 hPa | 0 mm | - | - | - |
| 1778094090 | 14.44° C | 63% | 1017.4 hPa | 0 mm | - | - | - |
| 1778093687 | 14.44° C | 63% | 1017.3 hPa | 0 mm | - | - | - |
| 1778093286 | 14.44° C | 66% | 1017.3 hPa | 0 mm | - | - | - |
| 1778092883 | 14.44° C | 66% | 1017.5 hPa | 0 mm | - | - | - |
| 1778092481 | 14.44° C | 65% | 1017.5 hPa | 0 mm | - | - | - |
| 1778092078 | 13.89° C | 63% | 1017.4 hPa | 0 mm | - | - | - |
| 1778091677 | 13.89° C | 66% | 1017.6 hPa | 0 mm | - | - | - |
| 1778090869 | 13.89° C | 66% | 1017.7 hPa | 0 mm | - | - | - |
| 1778090466 | 13.89° C | 66% | 1017.8 hPa | 0 mm | - | - | - |
| 1778090065 | 13.89° C | 68% | 1018.2 hPa | 0 mm | - | - | - |
| 1778089662 | 13.89° C | 68% | 1018.3 hPa | 0 mm | - | - | - |
| 1778089260 | 13.33° C | 67% | 1018.1 hPa | 0 mm | - | - | - |
| 1778088858 | 13.33° C | 68% | 1018.2 hPa | 0 mm | - | - | - |
| 1778088456 | 13.33° C | 70% | 1018.1 hPa | 0 mm | - | - | - |
| 1778088053 | 12.78° C | 70% | 1018.2 hPa | 0 mm | - | - | - |
| 1778087651 | 12.22° C | 71% | 1018.1 hPa | 0 mm | - | - | - |
| 1778087248 | 12.22° C | 69% | 1018.2 hPa | 0 mm | - | - | - |
| 1778086847 | 12.22° C | 70% | 1018.2 hPa | 0 mm | - | - | - |
| 1778086444 | 12.22° C | 72% | 1018.3 hPa | 0 mm | - | - | - |
* Rain since midnight (hover to see other rain measurements)
** Current wind speed in m/s (hover to see current wind gust speed)